sat.trackr.live / text

‹ back to catalog

STARLINK-37245

NORAD 68547 · 2026-070F

PAYLOAD ACTIVE UNKNOWN

§ Identity

Operator
Country
US
Launch date
2026-04-02
Launch site
AFETR
Launch vehicle
Mass (kg)
RCS (m²)

Purposes: comms

External: N2YO · Heavens-Above · Gunter

§ Orbital elements

Epoch: 2026-05-25T00:06:31.334976Z

Period
93.85 min
Inclination
53.1625°
Eccentricity
0.0000750
Mean motion
15.34396882 rev/d
Perigee alt
462.2 km
Apogee alt
463.2 km
Semi-major
6,840.8 km
B*
4.1824e-4
RAAN
7.7752°
Arg perigee
78.7847°
Mean anomaly
281.3240°
Rev number
824

§ Raw data

STARLINK-372451 68547U 26070F   26145.00452934  .00013779  00000+0  41824-3 0  99982 68547  53.1625   7.7752 0000750  78.7847 281.3240 15.34396882  8248

JSON: /api/v1/satellites/68547 · /tle

For live sub-satellite position, see the globe view (requires WebGL).

§ Visibility from observer

Set your observer location to see the next 7 days of passes ≥ 10°. The values pass through the URL so the page stays shareable.

No JS? Fill the form by hand. The geolocation button needs JavaScript.